When you browse on this site, cookies collect data to enhance your experience and personalize the content and advertising you see.
Visit our Privacy Policy to learn more. By continuing to use the site, you agree to this use of cookies and data.

Meteo pe oră la Krasnopole

Astăzi, 9 Iulie, Joi

Timp Temperatura Precipitaţii Vânt Presiune Umiditate
00:00 +14°C° 0 mm 5 m/s 743 mmHg 83%
01:00 +13°C° 0 mm 5 m/s 743 mmHg 83%
02:00 +12°C° 0 mm 4 m/s 743 mmHg 85%
03:00 +12°C° 0 mm 4 m/s 743 mmHg 86%
04:00 +12°C° 0 mm 4 m/s 744 mmHg 88%
05:00 +12°C° 0 mm 4 m/s 744 mmHg 90%
06:00 +14°C° 0 mm 4 m/s 745 mmHg 84%
07:00 +15°C° 0 mm 4 m/s 745 mmHg 78%
08:00 +17°C° 0 mm 5 m/s 746 mmHg 72%
09:00 +19°C° 0 mm 5 m/s 746 mmHg 68%
10:00 +20°C° 0 mm 5 m/s 746 mmHg 63%
11:00 +21°C° 0 mm 5 m/s 747 mmHg 59%
12:00 +21°C° 0 mm 5 m/s 747 mmHg 59%
13:00 +22°C° 0 mm 5 m/s 747 mmHg 58%
14:00 +22°C° 0 mm 5 m/s 747 mmHg 58%
15:00 +21°C° 0 mm 5 m/s 747 mmHg 61%
16:00 +21°C° 0 mm 5 m/s 747 mmHg 65%
17:00 +20°C° 0 mm 5 m/s 747 mmHg 68%
18:00 +18°C° 0 mm 4 m/s 747 mmHg 74%
19:00 +17°C° 0 mm 3 m/s 748 mmHg 80%
20:00 +16°C° 0 mm 3 m/s 748 mmHg 86%
21:00 +15°C° 0 mm 2 m/s 748 mmHg 88%
22:00 +14°C° 0 mm 2 m/s 748 mmHg 91%
23:00 +14°C° 0 mm 2 m/s 749 mmHg 93%

Mâine, 10 Iulie, Vineri

Timp Temperatura Precipitaţii Vânt Presiune Umiditate
00:00 +13°C° 0 mm 2 m/s 749 mmHg 93%
01:00 +13°C° 0 mm 2 m/s 749 mmHg 93%
02:00 +13°C° 0 mm 2 m/s 749 mmHg 93%
03:00 +13°C° 0 mm 1 m/s 749 mmHg 92%
04:00 +13°C° 0 mm 1 m/s 749 mmHg 92%
05:00 +13°C° 0 mm 1 m/s 750 mmHg 91%
06:00 +15°C° 0 mm 1 m/s 750 mmHg 84%
07:00 +18°C° 0 mm 1 m/s 750 mmHg 77%
08:00 +20°C° 0 mm 1 m/s 750 mmHg 70%
09:00 +21°C° 0 mm 1 m/s 750 mmHg 64%
10:00 +20°C° 0 mm 0 m/s 751 mmHg 58%
11:00 +22°C° 0 mm 0 m/s 751 mmHg 52%
12:00 +24°C° 0 mm 1 m/s 750 mmHg 50%
13:00 +25°C° 0 mm 1 m/s 750 mmHg 48%
14:00 +25°C° 0 mm 1 m/s 750 mmHg 46%
15:00 +25°C° 0 mm 1 m/s 750 mmHg 47%
16:00 +25°C° 0 mm 1 m/s 750 mmHg 48%
17:00 +25°C° 0 mm 1 m/s 750 mmHg 49%
18:00 +21°C° 0 mm 0 m/s 750 mmHg 54%
19:00 +19°C° 0 mm 0 m/s 750 mmHg 59%
20:00 +17°C° 0 mm 0 m/s 750 mmHg 63%
21:00 +19°C° 0 mm 1 m/s 750 mmHg 64%
22:00 +18°C° 0 mm 1 m/s 750 mmHg 65%
23:00 +18°C° 0 mm 1 m/s 751 mmHg 67%

Poimâine, 11 Iulie, Sâmbătă

Timp Temperatura Precipitaţii Vânt Presiune Umiditate
00:00 +16°C° 0 mm 1 m/s 750 mmHg 68%
01:00 +16°C° 0 mm 1 m/s 750 mmHg 68%
02:00 +16°C° 0 mm 2 m/s 750 mmHg 69%
03:00 +16°C° 0 mm 2 m/s 750 mmHg 71%
04:00 +16°C° 0 mm 2 m/s 751 mmHg 73%
05:00 +16°C° 0 mm 1 m/s 751 mmHg 75%
06:00 +18°C° 0 mm 2 m/s 751 mmHg 71%
07:00 +20°C° 0 mm 2 m/s 751 mmHg 67%
08:00 +21°C° 0 mm 2 m/s 751 mmHg 62%
09:00 +24°C° 0 mm 2 m/s 751 mmHg 59%
10:00 +25°C° 0 mm 2 m/s 751 mmHg 55%
11:00 +26°C° 0 mm 2 m/s 751 mmHg 51%
12:00 +26°C° 0 mm 2 m/s 751 mmHg 50%
13:00 +27°C° 0 mm 2 m/s 750 mmHg 48%
14:00 +27°C° 0 mm 2 m/s 750 mmHg 46%
15:00 +27°C° 0 mm 2 m/s 750 mmHg 48%
16:00 +27°C° 0 mm 1 m/s 749 mmHg 50%
17:00 +27°C° 0 mm 1 m/s 749 mmHg 53%
18:00 +25°C° 0 mm 1 m/s 749 mmHg 57%
19:00 +23°C° 0 mm 2 m/s 749 mmHg 61%
20:00 +20°C° 0 mm 2 m/s 749 mmHg 66%
21:00 +19°C° 0 mm 2 m/s 749 mmHg 68%
22:00 +19°C° 0 mm 2 m/s 749 mmHg 70%
23:00 +18°C° 0 mm 2 m/s 749 mmHg 72%

12 Iulie, Duminică

Timp Temperatura Precipitaţii Vânt Presiune Umiditate
00:00 +17°C° 0 mm 2 m/s 749 mmHg 73%
01:00 +17°C° 0 mm 2 m/s 748 mmHg 74%
02:00 +16°C° 0 mm 2 m/s 748 mmHg 75%
03:00 +16°C° 0 mm 2 m/s 748 mmHg 77%
04:00 +16°C° 0 mm 2 m/s 748 mmHg 78%
05:00 +16°C° 0 mm 2 m/s 747 mmHg 80%
06:00 +18°C° 0 mm 2 m/s 748 mmHg 74%
07:00 +20°C° 0 mm 2 m/s 748 mmHg 69%
08:00 +23°C° 0 mm 2 m/s 748 mmHg 64%
09:00 +24°C° 0 mm 2 m/s 748 mmHg 59%
10:00 +26°C° 0 mm 2 m/s 747 mmHg 55%
11:00 +27°C° 0 mm 3 m/s 747 mmHg 50%
12:00 +27°C° 0 mm 2 m/s 747 mmHg 49%
13:00 +28°C° 0 mm 2 m/s 747 mmHg 47%
14:00 +28°C° 0 mm 2 m/s 746 mmHg 45%
15:00 +28°C° 0 mm 2 m/s 746 mmHg 49%
16:00 +28°C° 0 mm 2 m/s 745 mmHg 52%
17:00 +28°C° 0 mm 2 m/s 745 mmHg 56%
18:00 +26°C° 0 mm 2 m/s 745 mmHg 61%
19:00 +24°C° 0 mm 2 m/s 745 mmHg 66%
20:00 +21°C° 0 mm 2 m/s 744 mmHg 71%
21:00 +21°C° 0 mm 2 m/s 744 mmHg 74%
22:00 +20°C° 0 mm 2 m/s 744 mmHg 76%
23:00 +20°C° 0 mm 3 m/s 744 mmHg 78%

13 Iulie, Luni

Timp Temperatura Precipitaţii Vânt Presiune Umiditate
00:00 +20°C° 0.5 mm 2 m/s 743 mmHg 82%
01:00 +19°C° 0.5 mm 2 m/s 743 mmHg 85%
02:00 +19°C° 0.5 mm 2 m/s 742 mmHg 89%
03:00 +19°C° 0.3 mm 3 m/s 742 mmHg 90%
04:00 +19°C° 0.3 mm 3 m/s 742 mmHg 90%
05:00 +19°C° 0.3 mm 3 m/s 742 mmHg 91%
06:00 +21°C° 0 mm 3 m/s 741 mmHg 88%
07:00 +22°C° 0 mm 3 m/s 741 mmHg 85%
08:00 +25°C° 0 mm 3 m/s 741 mmHg 81%
09:00 +26°C° 0.6 mm 2 m/s 741 mmHg 77%
10:00 +28°C° 0.6 mm 2 m/s 741 mmHg 72%
11:00 +29°C° 0.6 mm 2 m/s 740 mmHg 67%
12:00 +29°C° 1.4 mm 2 m/s 740 mmHg 66%
13:00 +29°C° 1.4 mm 3 m/s 740 mmHg 66%
14:00 +29°C° 1.4 mm 3 m/s 740 mmHg 65%
15:00 +28°C° 1.1 mm 3 m/s 739 mmHg 71%
16:00 +27°C° 1.1 mm 4 m/s 739 mmHg 77%
17:00 +26°C° 1.1 mm 4 m/s 738 mmHg 83%
18:00 +24°C° 0.6 mm 3 m/s 738 mmHg 87%
19:00 +22°C° 0.6 mm 3 m/s 738 mmHg 90%
20:00 +21°C° 0.6 mm 2 m/s 738 mmHg 94%
21:00 +20°C° 1 mm 2 m/s 738 mmHg 95%
22:00 +20°C° 1 mm 2 m/s 738 mmHg 96%
23:00 +19°C° 1 mm 2 m/s 738 mmHg 96%

14 Iulie, Marţi

Timp Temperatura Precipitaţii Vânt Presiune Umiditate
00:00 +19°C° 0.8 mm 2 m/s 738 mmHg 97%
01:00 +19°C° 0.8 mm 2 m/s 738 mmHg 97%
02:00 +19°C° 0.8 mm 2 m/s 738 mmHg 97%
03:00 +19°C° 0.5 mm 2 m/s 738 mmHg 97%
04:00 +19°C° 0.5 mm 3 m/s 737 mmHg 97%
05:00 +19°C° 0.5 mm 3 m/s 737 mmHg 97%
06:00 +19°C° 0.5 mm 3 m/s 738 mmHg 96%
07:00 +18°C° 0.5 mm 4 m/s 738 mmHg 96%
08:00 +18°C° 0.5 mm 4 m/s 738 mmHg 95%
09:00 +19°C° 0 mm 4 m/s 738 mmHg 93%
10:00 +19°C° 0 mm 4 m/s 738 mmHg 90%
11:00 +19°C° 0 mm 4 m/s 739 mmHg 88%
12:00 +20°C° 0 mm 4 m/s 739 mmHg 83%
13:00 +21°C° 0 mm 5 m/s 739 mmHg 79%
14:00 +22°C° 0 mm 5 m/s 739 mmHg 74%
15:00 +22°C° 0 mm 5 m/s 739 mmHg 72%
16:00 +22°C° 0 mm 5 m/s 739 mmHg 71%
17:00 +21°C° 0 mm 5 m/s 739 mmHg 69%
18:00 +19°C° 0 mm 5 m/s 739 mmHg 73%
19:00 +17°C° 0 mm 4 m/s 739 mmHg 76%
20:00 +16°C° 0 mm 3 m/s 739 mmHg 80%
21:00 +14°C° 0 mm 3 m/s 739 mmHg 81%
22:00 +14°C° 0 mm 3 m/s 739 mmHg 82%
23:00 +13°C° 0 mm 3 m/s 739 mmHg 84%
Arată mai mult